Hauptseite
METAR-TAF:

METAR-TAF

Flughäfen :

Nörvenich, Deutschland

Fliegerhorst Nörvenich

Breite: 50-50N, Länge: 006-40E, Höhe: 118 m

Beobachtung

Neuester Wetterbericht von vor 32 Minuten, um 06:20 UTC
Wind 6 kt aus Süd/Südost
Temperatur 16°C
Luftfeuchtigkeit 68%
Luftdruck 1014 hPa
Sichtweite: 6000 m

METAR: ETNN 220620Z AUTO 16006KT 6000 // ////// 16/10 Q1014 ///

Zeit: 08:52 (06:52 UTC)


TAF: fehlend

Wetterbeobachtungen und Prognosen von mehr als 4000 Flughäfen (METAR und TAF Bericht).

Die verfügbaren Stationen werden durch gelbe und rote Markierungen auf der Karte dargestellt.

Führen Sie die Maus auf sie, um den Namen der Station zu sehen.

Darauf klicken, um die Beobachtung von Wetterbeobachtungen und Prognosen zu sehen.

Um die Karte zu ändern : klicken Sie auf den grünen Tasten mit einem schwarzen Kreuz Zum Vergrößern, auf den grünen Button mit einem Gedankenstrich zu verkleinern, oder auf die grünen Pfeile für benachbarte Karten.


METAR-TAF: